Location: Ostrava
(49.8330°N, 18.2830°E)
Time: 07:30:59
(UTC+02:00)

Lacrosse 5 - Visible Passes

Search period start: 18 April 2014 00:00
Search period end: 28 April 2014 00:00
Orbit: 707 x 720 km, 57.0° (Epoch: 17 April)

Date Brightness Start Highest point End Pass type
(mag) Time Alt. Az. Time Alt. Az. Time Alt. Az.
18 Apr 3.3 01:26:29 10° WNW 01:31:09 36° N 01:35:48 10° ENE visible
18 Apr 2.3 03:09:43 10° NW 03:14:43 61° NNE 03:19:41 10° ESE visible
18 Apr 2.2 04:52:46 10° WNW 04:57:27 41° SW 05:02:07 10° SSE visible
18 Apr 2.3 21:05:08 10° SSW 21:09:44 36° SE 21:14:20 10° ENE visible
18 Apr 2.2 22:47:22 10° WSW 22:52:24 66° NNW 22:57:25 10° NE visible
19 Apr 3.3 00:31:13 10° WNW 00:35:55 37° N 00:40:35 10° ENE visible
19 Apr 2.8 02:14:45 10° NW 02:19:37 46° NNE 02:24:27 10° E visible
19 Apr 1.7 03:57:42 10° WNW 04:02:42 67° SW 04:07:39 10° SE visible
19 Apr 1.8 21:52:21 10° SW 21:57:25 86° SE 22:02:29 10° ENE visible
19 Apr 3.1 23:35:54 10° W 23:40:42 41° NNW 23:45:28 10° ENE visible
20 Apr 3.2 01:19:41 10° WNW 01:24:26 39° N 01:29:08 10° E visible
20 Apr 1.9 03:02:45 10° NW 03:07:48 81° NNE 03:12:49 10° ESE visible
20 Apr 2.7 04:46:05 10° WNW 04:50:14 26° SW 04:54:22 10° S visible
20 Apr 1.9 20:57:39 10° SW 21:02:35 55° SE 21:07:30 10° ENE visible
20 Apr 2.7 22:40:36 10° W 22:45:32 51° NNW 22:50:28 10° NE visible
21 Apr 3.3 00:24:31 10° WNW 00:29:12 36° N 00:33:51 10° ENE visible
21 Apr 2.4 02:07:48 10° NW 02:12:47 58° NNE 02:17:44 10° ESE visible
21 Apr 2.1 03:50:49 10° WNW 03:55:35 44° SW 04:00:19 10° SSE visible
21 Apr 2.1 21:45:25 10° WSW 21:50:28 69° NNW 21:55:31 10° NE visible
21 Apr 3.3 23:29:15 10° WNW 23:33:57 37° N 23:38:38 10° ENE visible
22 Apr 2.9 01:12:49 10° WNW 01:17:40 45° NNE 01:22:29 10° E visible
22 Apr 1.7 02:55:47 10° WNW 03:00:48 72° SW 03:05:47 10° SE visible
22 Apr 3.2 04:39:47 10° W 04:42:54 17° WSW 04:46:01 10° SSW visible
22 Apr 1.8 20:50:27 10° SW 20:55:31 81° SE 21:00:35 10° ENE visible
22 Apr 3.0 22:33:56 10° W 22:38:44 42° NNW 22:43:33 10° ENE visible
23 Apr 3.2 00:17:45 10° WNW 00:22:28 38° N 00:27:10 10° ENE visible
23 Apr 1.9 02:00:50 10° NW 02:05:53 77° NNE 02:10:54 10° ESE visible
23 Apr 2.6 03:44:05 10° WNW 03:48:23 29° SW 03:52:38 10° S visible
23 Apr 2.7 21:38:38 10° W 21:43:36 53° NNW 21:48:33 10° NE visible
23 Apr 3.3 23:22:33 10° WNW 23:27:14 36° N 23:31:53 10° ENE visible
24 Apr 2.4 01:05:53 10° NW 01:10:51 55° NNE 01:13:45 24° E visible
24 Apr 2.3 02:48:53 10° WNW 02:52:41 41° W 02:52:41 41° W visible
24 Apr 2.1 20:43:29 10° WSW 20:48:32 74° NNW 20:53:36 10° NE visible
24 Apr 3.3 22:27:16 10° WNW 22:31:59 38° N 22:36:42 10° ENE visible
25 Apr 2.9 00:10:53 10° WNW 00:15:43 43° NNE 00:19:16 17° E visible
25 Apr 1.9 01:53:51 10° WNW 01:58:16 66° W 01:58:16 66° W visible
25 Apr 3.0 21:31:57 10° W 21:36:47 44° NNW 21:41:37 10° ENE visible
25 Apr 3.2 23:15:47 10° WNW 23:20:30 38° N 23:25:12 10° ENE visible
26 Apr 2.0 00:58:55 10° NW 01:03:58 72° NNE 01:04:26 67° ENE visible
26 Apr 3.7 02:42:06 10° WNW 02:43:28 17° WNW 02:43:28 17° WNW visible
26 Apr 2.6 20:36:40 10° WSW 20:41:39 56° NNW 20:46:37 10° NE visible
26 Apr 3.3 22:20:35 10° WNW 22:25:16 36° N 22:29:55 10° ENE visible
27 Apr 2.5 00:03:57 10° NW 00:08:54 52° NNE 00:10:51 33° E visible
27 Apr 2.9 01:46:56 10° WNW 01:49:53 33° W 01:49:53 33° W visible
27 Apr 3.2 21:25:17 10° WNW 21:30:01 39° N 21:34:45 10° ENE visible
27 Apr 2.9 23:08:57 10° WNW 23:13:45 42° NNE 23:17:23 16° E visible
